Weather History for Warrensburg, MO

Change the Weather History Date:

Wednesday, February 5, 2014

  Actual Average (KSZL) Record (KSZL)
Temperature  
Mean Temperature - -  
Max Temperature - 41 °F 98 °F (2003)
Min Temperature - 23 °F 1 °F (2014)
Moisture  
Dew Point -    
Average Humidity    
Maximum Humidity    
Minimum Humidity    
Precipitation  
Precipitation 0.00 in - - ()
Sea Level Pressure  
Sea Level Pressure 30.48 in    
Wind  
Wind Speed 13 mph (NW)    
Max Wind Speed 20 mph    
Max Gust Speed 26 mph    
Visibility 8 miles    
Events      
Averages and records for this station are not official NWS values.
T = Trace of Precipitation, MM = Missing Value Source: NWS Daily Summary

Daily Weather History Graph

Daily Weather History Graph

Search for Another Location

Airport:

Trip Planner

Search our weather history database for the weather conditions in past years. The results will help you decide how hot, cold, wet, or windy it might be!

Date:

Astronomy

Feb. 05, 2014 Rise Set
Actual Time 7:17 AM CST 5:41 PM CST
Civil Twilight 6:49 AM CST 6:09 PM CST
Nautical Twilight 6:17 AM CST 6:41 PM CST
Astronomical Twilight 5:46 AM CST 7:12 PM CST
Moon 10:36 AM CST (2/5) No Moon Set
Length of Visible Light 11h 19m
Length of Day
10h 24m
Waxing Crescent, 39% of the Moon is Illuminated
Feb 5
Waxing Crescent
Feb 6
First Quarter
Feb 14
Full
Feb 22
Last Quarter
Mar 1
New

Hourly Weather History & Observations

Time (CST) Temp. Dew Point Humidity Pressure Visibility Wind Dir Wind Speed Gust Speed Precip Events Conditions
12:15 AM - - N/A% 30.12 in 3.0 mi NNW 13.8 mph 19.6 mph N/A   Unknown
12:35 AM - - N/A% 30.12 in 1.2 mi NNW 18.4 mph 26.5 mph N/A   Unknown
12:55 AM - - N/A% 30.13 in 1.0 mi NNW 18.4 mph 24.2 mph N/A   Unknown
1:15 AM - - N/A% 30.15 in 1.2 mi NNW 17.3 mph 20.7 mph N/A   Unknown
1:35 AM - - N/A% 30.16 in 1.5 mi NNW 13.8 mph 19.6 mph N/A   Unknown
1:55 AM - - N/A% 30.17 in 1.8 mi NNW 12.7 mph - N/A   Unknown
2:15 AM - - N/A% 30.19 in 3.0 mi NNW 15.0 mph 20.7 mph N/A   Unknown
2:55 AM - - N/A% 30.22 in 2.5 mi NW 13.8 mph 18.4 mph N/A   Unknown
3:15 AM - - N/A% 30.23 in 3.0 mi NNW 13.8 mph 20.7 mph N/A   Unknown
3:35 AM - - N/A% 30.25 in 2.5 mi NW 15.0 mph 20.7 mph N/A   Unknown
3:55 AM - - N/A% 30.27 in 5.0 mi WNW 13.8 mph 24.2 mph N/A   Unknown
4:15 AM - - N/A% 30.29 in 4.0 mi NW 13.8 mph 21.9 mph N/A   Unknown
4:35 AM - - N/A% 30.30 in 5.0 mi NW 19.6 mph - N/A   Unknown
4:55 AM - - N/A% 30.32 in 5.0 mi NW 17.3 mph 21.9 mph N/A   Unknown
5:15 AM - - N/A% 30.34 in 5.0 mi NW 13.8 mph 18.4 mph N/A   Unknown
5:35 AM - - N/A% 30.36 in 7.0 mi WNW 16.1 mph 25.3 mph N/A   Unknown
5:55 AM - - N/A% 30.37 in 10.0 mi NW 11.5 mph - N/A   Unknown
6:15 AM - - N/A% 30.39 in 10.0 mi NW 15.0 mph 20.7 mph N/A   Unknown
6:35 AM - - N/A% 30.40 in 10.0 mi NW 13.8 mph 21.9 mph N/A   Unknown
6:55 AM - - N/A% 30.41 in 10.0 mi NW 16.1 mph - N/A   Unknown
7:15 AM - - N/A% 30.43 in 10.0 mi NW 12.7 mph 19.6 mph N/A   Clear
7:35 AM - - N/A% 30.44 in 10.0 mi NW 16.1 mph - N/A   Clear
7:55 AM - - N/A% 30.45 in 10.0 mi NW 10.4 mph 21.9 mph N/A   Clear
8:15 AM - - N/A% 30.46 in 10.0 mi NW 16.1 mph 20.7 mph N/A   Clear
8:35 AM - - N/A% 30.47 in 10.0 mi NW 13.8 mph 20.7 mph N/A   Clear
8:55 AM - - N/A% 30.48 in 10.0 mi NW 15.0 mph 21.9 mph N/A   Clear
9:15 AM - - N/A% 30.49 in 10.0 mi NW 11.5 mph 19.6 mph N/A   Clear
9:35 AM - - N/A% 30.49 in 10.0 mi NW 13.8 mph 19.6 mph N/A   Clear
9:55 AM - - N/A% 30.50 in 10.0 mi NW 13.8 mph - N/A   Clear
10:15 AM - - N/A% 30.50 in 10.0 mi NW 13.8 mph - N/A   Clear
10:35 AM - - N/A% 30.50 in 10.0 mi NW 12.7 mph 17.3 mph N/A   Clear
10:55 AM - - N/A% 30.52 in 10.0 mi NW 13.8 mph - N/A   Clear
11:15 AM - - N/A% 30.53 in 10.0 mi NNW 10.4 mph - N/A   Clear
11:35 AM - - N/A% 30.53 in 10.0 mi WNW 11.5 mph 16.1 mph N/A   Clear
11:55 AM - - N/A% 30.53 in 10.0 mi NW 12.7 mph - N/A   Clear
12:15 PM - - N/A% 30.53 in 7.0 mi NW 12.7 mph - N/A   Clear
12:35 PM - - N/A% 30.52 in 7.0 mi NW 17.3 mph 20.7 mph N/A   Clear
12:55 PM - - N/A% 30.52 in 10.0 mi NW 13.8 mph 20.7 mph N/A   Clear
1:15 PM - - N/A% 30.52 in 10.0 mi NW 10.4 mph - N/A   Clear
1:35 PM - - N/A% 30.52 in 10.0 mi NW 11.5 mph - N/A   Clear
1:55 PM - - N/A% 30.54 in 10.0 mi WNW 10.4 mph 16.1 mph N/A   Clear
2:15 PM - - N/A% 30.54 in 10.0 mi NW 13.8 mph 17.3 mph N/A   Clear
2:35 PM - - N/A% 30.54 in 10.0 mi NW 10.4 mph 18.4 mph N/A   Clear
2:55 PM - - N/A% 30.55 in 10.0 mi NW 11.5 mph 19.6 mph N/A   Clear
3:15 PM - - N/A% 30.55 in 10.0 mi WNW 12.7 mph 18.4 mph N/A   Clear
3:35 PM - - N/A% 30.55 in 10.0 mi NW 13.8 mph - N/A   Clear
3:55 PM - - N/A% 30.56 in 10.0 mi NW 12.7 mph 17.3 mph N/A   Clear
4:15 PM - - N/A% 30.57 in 10.0 mi NW 12.7 mph - N/A   Clear
4:35 PM - - N/A% 30.58 in 10.0 mi NW 11.5 mph 16.1 mph N/A   Clear
4:55 PM - - N/A% 30.58 in 10.0 mi NW 13.8 mph 17.3 mph N/A   Clear
5:15 PM - - N/A% 30.58 in 10.0 mi NW 9.2 mph - N/A   Clear
5:35 PM - - N/A% 30.60 in 10.0 mi WNW 10.4 mph - N/A   Clear
5:55 PM - - N/A% 30.61 in 10.0 mi WNW 5.8 mph - N/A   Clear
6:15 PM - - N/A% 30.61 in 10.0 mi NW 5.8 mph - N/A   Clear
6:35 PM - - N/A% 30.61 in 10.0 mi NW 4.6 mph - N/A   Clear
6:55 PM - - N/A% 30.61 in 10.0 mi NW 5.8 mph - N/A   Clear
7:15 PM - - N/A% 30.62 in 10.0 mi WNW 6.9 mph - N/A   Clear
7:35 PM - - N/A% 30.62 in 10.0 mi WNW 6.9 mph - N/A   Clear
7:55 PM - - N/A% 30.63 in 10.0 mi WNW 6.9 mph - N/A   Clear
8:15 PM - - N/A% 30.63 in 10.0 mi WNW 5.8 mph - N/A   Clear
8:35 PM - - N/A% 30.64 in 10.0 mi West 4.6 mph - N/A   Clear
8:55 PM - - N/A% 30.65 in 10.0 mi West 3.5 mph - N/A   Clear
9:15 PM - - N/A% 30.65 in 10.0 mi West 3.5 mph - N/A   Clear
9:35 PM - - N/A% 30.66 in 10.0 mi West 4.6 mph - N/A   Clear
9:55 PM - - N/A% 30.65 in 10.0 mi WNW 5.8 mph - N/A   Clear
10:15 PM - - N/A% 30.65 in 10.0 mi WNW 5.8 mph - N/A   Clear
10:35 PM - - N/A% 30.65 in 10.0 mi NW 5.8 mph - N/A   Clear
10:55 PM - - N/A% 30.63 in 10.0 mi NNW 6.9 mph - N/A   Clear
11:15 PM - - N/A% 30.64 in 10.0 mi NW 4.6 mph - N/A   Clear
11:35 PM - - N/A% 30.64 in 10.0 mi NW 5.8 mph - N/A   Clear
11:55 PM - - N/A% 30.63 in 10.0 mi NW 4.6 mph - N/A   Clear